Tracking 18840 objects as of 18-November-2017
HD Live streaming from Space Station
objects crossing your sky now

FENGYUN 1C DEB

Track FENGYUN 1C DEB now!
10-day predictions


NORAD ID: 31205
Int'l Code: 1999-025BKK
Perigee: 705.8 km
Apogee: 942.6 km
Inclination: 99.2 °
Period: 101.2 minutes
Semi major axis: 7195 km
RCS: 0.0159 m2 (small)
Launch date: May 10, 1999
Source: People's Republic of China (PRC)
Launch site: Taiyaun Space Center, China (TSC)

Note: This is SATELLITE DEBRIS
aabbcc
Your satellite tracking list
Your tracking list is empty




NASA's NSSDC Master Catalog

Two Line Element Set (TLE):
1 31205U 99025BKK 17321.51191064 +.00000044 +00000-0 +37233-4 0  9997
2 31205 099.2423 214.5564 0164553 305.8045 178.7294 14.22459473552986
Source of the keplerian elements: AFSPC